Regional Weather Roundup
Issued by NWS Green Bay, WI

Home | Current Version | Previous Version | Text Only | Print | Product List | Glossary On
Versions: 1 2 3 4 5 6 7 8 9 10 11 12 13 14 15 16 17 18 19 20 21 22 23 24 25 26 27 28 29 30 31 32 33 34 35 36 37 38 39 40 41 42 43 44 45 46 47 48 49 50
000
ASUS43 KGRB 310410
RWRGRB

NORTH-CENTRAL AND NORTHEAST WISCONSIN REGIONAL WEATHER ROUNDUP
NATIONAL WEATHER SERVICE GREEN BAY WI
1000 PM CST FRI JAN 30 2015

WIZ005-009-010>012-018-019-310500-
NORTH CENTRAL WISCONSIN

CITY           SKY/WX    TMP DP  RH WIND       PRES   REMARKS
IRONWOOD       CLOUDY    18   3  53 SW6       30.16F WCI   9
MANITOWISH WTR CLOUDY    14   5  66 SW7       30.18R WCI   4
ARBOR VITAE    CLOUDY    17   8  67 SW8       30.18S WCI   6
EAGLE RIVER    MOCLDY    15   4  63 CALM      30.16F
LAND O LAKES   CLOUDY    16   5  63 SW9       30.17S WCI   4
RHINELANDER    CLOUDY    13   5  70 S9        30.18F WCI   1
PHILLIPS       CLOUDY    14   5  67 S6        30.19F WCI   5
ANTIGO         MOCLDY    11   5  76 S3        30.21F
TOMAHAWK       CLOUDY    12   5  74 CALM      30.21S
MERRILL        CLOUDY    13   6  76 CALM      30.22F
$$

WIZ013-073-310500-
NORTHEAST WISCONSIN

CITY           SKY/WX    TMP DP  RH WIND       PRES   REMARKS
IRON MOUNTAIN  CLOUDY    17   5  59 SW7       30.21F WCI   8
MARINETTE      CLOUDY    18   9  68 SW6       30.29S WCI   9
OCONTO         CLOUDY    19  10  69 MISG      30.31S
$$

WIZ017-030-035>037-045-310500-
CENTRAL WISCONSIN

CITY           SKY/WX    TMP DP  RH WIND       PRES   REMARKS
MEDFORD        CLOUDY    13   6  71 S6        30.20S WCI   4
WAUSAU         CLOUDY    15   5  64 S7        30.22F WCI   5
MOSINEE        MOCLDY    12   7  79 S7        30.24F WCI   2
MARSHFIELD     CLOUDY    15   6  67 CALM      30.24F
WISC RAPIDS    CLOUDY    14   3  61 CALM      30.28R
STEVENS POINT  PTCLDY    11   3  72 CALM      30.28S
WAUPACA        PTCLDY    19   8  62 CALM      30.30R
SHAWANO        CLOUDY    19   8  60 CALM      30.29F
CLINTONVILLE   MOCLDY    16   7  67 CALM      30.29F
$$

WIZ038-039-048-051-310500-
FOX VALLEY

CITY           SKY/WX    TMP DP  RH WIND       PRES   REMARKS
NWS GREEN BAY  PTCLDY    19  12  74 CALM      30.31S
APPLETON       MOCLDY    18   9  68 SW3       30.29F
OSHKOSH        MOCLDY    17  10  74 S10       30.28F WCI   5
FOND DU LAC    CLEAR     18   9  68 SW7       30.30F WCI   9
$$

WIZ022-050-052-310500-
EAST CENTRAL WISCONSIN

CITY           SKY/WX    TMP DP  RH WIND       PRES   REMARKS
STURGEON BAY   CLOUDY    18   9  68 S9        30.31F WCI   6
MANITOWOC      CLOUDY    21  13  71 S5        30.32F
SHEBOYGAN      PTCLDY    19  11  70 SW7       30.31F WCI  10
$$

LMZ563-521-522-541>543-310500-
LAKESHORE

STATION/POSITION TIME  TEMP    WIND        PRES    VSBY  WAVE
                       AIR SEA DIR/SP/G                  HT/PER
                 (UTC) (F)     (DEG/KT/KT) (MB)    (MI)  (FT/S)
SHEBOYGAN LKSHOR 0400   22     220/ 10/ 12 1028.1F
KEWAUNEE LKSHORE 0400   20     200/  5/  7 1025.6F
NORTHPORT PIER   0400   18     210/  1/  5 1026.1S
SISTER BAY LKSHO 0400   19     190/  8/ 10   N/A
CHAMBERS ISLAND  0400   18     180/  6/ 10 1026.1S
MENOMINEE LKSHOR 0400   19     210/  6     1026.6R
$$



USA.gov is the U.S. government's official web portal to all federal, state and local government web resources and services.